This is the latest recevied weather packets stored in our database for station/object K2YYD-2. If no packets are shown the sender has not sent any weather packets the latest 10 day(s).
| Time | Temp. | Humidity | Pressure | Rain* | Wind** | Luminosity | Snow |
|---|---|---|---|---|---|---|---|
| 1777720230 | 10° C | 91% | 1007.6 hPa | 1.02 mm | - | 49 W/m² | - |
| 1777720110 | 10° C | 91% | 1007.6 hPa | 1.02 mm | - | 52 W/m² | - |
| 1777719991 | 10° C | 90% | 1007.6 hPa | 1.02 mm | - | 62 W/m² | - |
| 1777719870 | 10° C | 90% | 1007.5 hPa | 1.02 mm | - | 55 W/m² | - |
| 1777719750 | 10° C | 90% | 1007.5 hPa | 1.02 mm | - | 55 W/m² | - |
| 1777719630 | 10° C | 89% | 1007.4 hPa | 1.02 mm | - | 44 W/m² | - |
| 1777719510 | 10° C | 89% | 1007.4 hPa | 1.02 mm | - | 31 W/m² | - |
| 1777719391 | 10° C | 89% | 1007.3 hPa | 1.02 mm | - | 29 W/m² | - |
| 1777719271 | 10° C | 88% | 1007.2 hPa | 1.02 mm | - | 42 W/m² | - |
| 1777719150 | 10° C | 88% | 1007.3 hPa | 0.76 mm | - | 34 W/m² | - |
| 1777719030 | 10° C | 88% | 1007.4 hPa | 0.51 mm | - | 22 W/m² | - |
| 1777718910 | 10° C | 87% | 1007.7 hPa | 0.51 mm | - | 16 W/m² | - |
| 1777718791 | 10° C | 87% | 1007.7 hPa | 0.51 mm | - | 16 W/m² | - |
| 1777718671 | 10° C | 87% | 1007.8 hPa | 0.51 mm | - | 14 W/m² | - |
| 1777718550 | 10° C | 86% | 1007.9 hPa | 0.25 mm | - | 9 W/m² | - |
| 1777718431 | 10° C | 86% | 1008.1 hPa | 0 mm | - | 5 W/m² | - |
| 1777718311 | 10° C | 86% | 1008.1 hPa | 0 mm | - | 4 W/m² | - |
| 1777718191 | 10° C | 86% | 1008.2 hPa | 0 mm | - | 5 W/m² | - |
| 1777718069 | 10° C | 86% | 1008 hPa | 0 mm | - | 8 W/m² | - |
| 1777717949 | 10° C | 86% | 1008 hPa | 0 mm | - | 7 W/m² | - |
| 1777717829 | 10° C | 86% | 1007.9 hPa | 0 mm | - | 7 W/m² | - |
| 1777717709 | 10° C | 86% | 1007.8 hPa | 0 mm | - | 10 W/m² | - |
| 1777717590 | 10° C | 86% | 1007.7 hPa | 0 mm | - | 16 W/m² | - |
| 1777717469 | 10° C | 86% | 1007.8 hPa | 0 mm | - | 10 W/m² | - |
| 1777717350 | 10° C | 86% | 1007.8 hPa | 0 mm | - | 10 W/m² | - |
* Rain latest hour (hover to see other rain measurements)
** Current wind speed in m/s (hover to see current wind gust speed)